Latest Weather Observations for Maroochydore

IDQ60901

Issued at 11:15 pm EST Thursday 27 November 2014 (issued every 10 minutes, with the page automatically refreshed every 10 minutes)

About weather observations | Map of Brisbane area stations | Latest observations for Brisbane area | Other Formats
Station Details ID: 040861 Name: SUNSHINE COAST AIRPORT Lat: -26.60 Lon: 153.09 Height: 3.3 m
Data from the previous 72 hours. | See also: Recent months at Maroochydore
Date/Time
EST
Tmp

°C
App
Tmp
°C
Dew
Point
°C
Rel
Hum
%
Delta-T

°C
Wind Press
QNH
hPa
Press
MSL
hPa
Rain
since
9 am
mm
Dir
 
Spd
km/h
Gust
km/h
Spd
kts
Gust
kts
27/11:00pm 23.9 25.6 20.2 80 2.4 ENE 11 15 6 8 1016.7 - 0.0
27/10:30pm 23.9 24.9 20.2 80 2.4 ENE 15 19 8 10 1016.8 - 0.0
27/10:00pm 23.9 25.0 20.4 81 2.3 ENE 15 19 8 10 1017.0 - 0.0
27/09:30pm 24.6 26.2 20.7 79 2.6 ENE 13 17 7 9 1016.9 - 0.0
27/09:00pm 24.4 25.9 20.5 79 2.5 ENE 13 19 7 10 1016.7 1016.7 0.0
27/08:30pm 24.5 26.5 20.8 80 2.4 E 11 15 6 8 1016.7 - 0.0
27/08:00pm 24.6 25.1 20.9 80 2.4 NE 19 20 10 11 1016.0 - 0.0
27/07:30pm 25.0 27.5 21.1 79 2.6 SE 9 13 5 7 1016.3 - 0.0
27/07:00pm 25.0 26.3 20.9 78 2.7 ESE 15 19 8 10 1016.1 - 0.0
27/06:30pm 24.8 26.4 20.7 78 2.7 E 13 19 7 10 1015.5 - 0.0
27/06:00pm 24.9 25.9 20.2 75 3.1 ENE 15 19 8 10 1015.0 1015.0 0.0
27/05:30pm 25.7 26.1 19.8 70 3.8 NE 17 20 9 11 1014.3 - 0.0
27/05:00pm 26.4 26.9 20.0 68 4.2 NNE 17 22 9 12 1013.6 - 0.0
27/04:30pm 26.6 25.8 19.2 64 4.8 NE 22 28 12 15 1012.9 - 0.0
27/04:00pm 27.5 26.8 19.6 62 5.1 NNE 22 28 12 15 1012.8 - 0.0
27/03:30pm 27.8 26.8 19.6 61 5.3 NE 24 30 13 16 1013.0 - 0.0
27/03:00pm 28.6 28.6 20.1 60 5.6 NE 20 26 11 14 1013.4 1013.4 0.0
27/02:30pm 29.1 29.0 20.0 58 6.0 NE 20 26 11 14 1013.5 - 0.0
27/02:00pm 29.6 29.4 20.5 58 6.0 NE 22 28 12 15 1013.8 - 0.0
27/01:30pm 28.9 27.7 19.2 55 6.3 NE 24 28 13 15 1014.0 - 0.0
27/01:00pm 29.2 28.1 19.5 56 6.3 NE 24 28 13 15 1014.1 - 0.0
27/12:30pm 29.5 28.7 20.1 57 6.2 NE 24 30 13 16 1014.6 - 0.0
27/12:00pm 29.5 28.9 19.8 56 6.3 ENE 22 26 12 14 1014.8 1014.8 0.0
27/11:30am 29.4 29.3 20.8 60 5.7 NE 22 26 12 14 1015.1 - 0.0
27/11:00am 28.9 29.1 20.6 61 5.5 NE 20 26 11 14 1015.6 - 0.0
27/10:30am 28.4 28.3 19.9 60 5.6 NE 20 24 11 13 1015.8 - 0.0
27/10:00am 28.4 28.9 20.9 64 5.0 NE 19 24 10 13 1016.2 - 0.0
27/09:30am 27.9 28.3 19.9 61 5.2 NE 17 22 9 12 1016.3 - 0.0
27/09:00am 27.8 28.7 20.1 63 5.0 NE 15 20 8 11 1016.6 1016.6 0.0
27/08:30am 27.4 28.8 19.5 62 5.1 N 11 19 6 10 1016.7 - 0.0
27/08:00am 25.6 27.4 20.4 73 3.4 NNW 11 15 6 8 1016.8 - 0.0
27/07:30am 24.2 26.4 20.5 80 2.4 NNW 9 13 5 7 1016.8 - 0.0
27/07:00am 23.3 26.5 21.2 88 1.4 WNW 6 9 3 5 1016.7 - 0.0
27/06:30am 22.5 25.6 21.0 91 1.0 NW 6 7 3 4 1016.3 - 0.0
27/06:00am 22.0 24.9 20.6 92 0.9 W 6 9 3 5 1016.0 1016.0 0.0
27/05:30am 21.3 23.9 20.1 93 0.8 W 6 7 3 4 1016.0 - 0.0
27/05:00am 21.2 23.2 20.0 93 0.8 WSW 9 11 5 6 1015.8 - 0.0
27/04:30am 20.4 23.7 19.1 92 0.8 CALM 0 0 0 0 1015.5 - 0.0
27/04:00am 20.5 23.1 19.2 92 0.8 WSW 4 6 2 3 1015.2 - 0.0
27/03:30am 20.7 23.0 19.4 92 0.8 WSW 6 7 3 4 1015.2 - 0.0
27/03:00am 20.7 23.0 19.5 93 0.8 SW 6 7 3 4 1015.3 1015.3 0.0
27/02:30am 20.1 21.6 18.9 93 0.8 WNW 9 11 5 6 1014.8 - 0.0
27/02:00am 20.1 21.2 18.9 93 0.8 WNW 11 13 6 7 1014.8 - 0.0
27/01:30am 19.9 23.0 18.6 92 0.8 CALM 0 0 0 0 1015.0 - 0.0
27/01:00am 20.0 23.1 18.7 92 0.8 CALM 0 0 0 0 1015.5 - 0.0
27/12:30am 20.0 23.1 18.7 92 0.8 CALM 0 0 0 0 1015.9 - 0.0
27/12:00am 19.9 22.9 18.4 91 0.9 CALM 0 0 0 0 1016.1 1016.1 0.0
 
Date/Time
EST
Tmp

°C
App
Tmp
°C
Dew
Point
°C
Rel
Hum
%
Delta-T

°C
Wind Press
QNH
hPa
Press
MSL
hPa
Rain
since
9 am
mm
Dir
 
Spd
km/h
Gust
km/h
Spd
kts
Gust
kts
26/11:30pm 19.8 22.7 18.3 91 0.9 CALM 0 0 0 0 1016.5 - 0.0
26/11:00pm 19.8 22.7 18.1 90 1.1 CALM 0 0 0 0 1017.0 - 0.0
26/10:30pm 20.4 23.4 18.5 89 1.2 CALM 0 0 0 0 1017.4 - 0.0
26/10:00pm 21.1 24.4 19.2 89 1.2 CALM 0 0 0 0 1017.6 - 0.0
26/09:30pm 21.4 24.7 19.1 87 1.5 CALM 0 0 0 0 1017.6 - 0.0
26/09:00pm 21.9 25.4 19.6 87 1.5 CALM 0 0 0 0 1017.4 1017.4 0.0
26/08:30pm 22.2 24.6 19.6 85 1.7 NNE 6 7 3 4 1017.3 - 0.0
26/08:00pm 22.7 25.1 19.7 83 1.9 NNE 6 9 3 5 1017.0 - 0.0
26/07:30pm 22.8 25.0 19.6 82 2.0 N 7 11 4 6 1016.9 - 0.0
26/07:00pm 23.4 24.6 19.8 80 2.3 NNE 13 17 7 9 1016.6 - 0.0
26/06:30pm 23.7 25.1 19.6 78 2.6 NNE 11 17 6 9 1016.5 - 0.0
26/06:00pm 24.1 24.9 19.8 77 2.8 NNE 15 19 8 10 1016.1 1016.1 0.0
26/05:30pm 24.6 25.1 20.1 76 2.9 NNE 17 22 9 12 1015.8 - 0.0
26/05:00pm 25.3 25.3 19.7 71 3.6 NNE 19 22 10 12 1015.5 - 0.0
26/04:30pm 25.8 26.0 20.1 71 3.7 NNE 19 24 10 13 1015.0 - 0.0
26/04:00pm 26.4 26.5 20.3 69 4.0 NE 20 26 11 14 1014.8 - 0.0
26/03:30pm 27.4 27.3 20.0 64 4.8 NE 20 26 11 14 1014.8 - 0.0
26/03:00pm 27.5 26.7 20.1 64 4.8 NE 24 28 13 15 1014.9 1014.9 0.0
26/02:30pm 27.9 26.9 20.5 64 4.9 NE 26 32 14 17 1014.9 - 0.0
26/02:00pm 28.5 27.9 20.5 62 5.3 NE 24 30 13 16 1015.2 - 0.0
26/01:30pm 28.0 27.1 19.8 61 5.3 NE 24 30 13 16 1015.4 - 0.0
26/01:00pm 29.5 29.7 21.4 61 5.4 NE 22 28 12 15 1015.9 - 0.0
26/12:30pm 29.2 29.2 20.9 61 5.5 NE 22 28 12 15 1016.3 - 0.0
26/12:00pm 28.8 28.9 20.3 60 5.6 NE 20 26 11 14 1016.5 1016.5 0.0
26/11:30am 28.4 28.3 19.9 60 5.6 NE 20 24 11 13 1016.8 - 0.0
26/11:00am 28.7 29.0 20.7 62 5.3 NE 20 24 11 13 1017.0 - 0.0
26/10:30am 28.9 29.4 20.9 62 5.3 NE 19 24 10 13 1017.1 - 0.0
26/10:00am 28.3 28.7 20.6 63 5.1 NNE 19 24 10 13 1017.2 - 0.0
26/09:30am 28.5 29.4 21.5 66 4.7 NNE 19 24 10 13 1017.1 - 0.0
26/09:00am 26.5 27.8 21.7 75 3.2 NNE 17 20 9 11 1017.3 1017.3 0.0
26/08:30am 26.8 26.9 20.4 68 4.2 NNE 20 26 11 14 1017.2 - 0.0
26/08:00am 27.0 27.6 21.1 70 3.9 NNE 19 26 10 14 1017.2 - 0.0
26/07:30am 26.4 27.6 21.4 74 3.3 NNE 17 22 9 12 1017.1 - 0.0
26/07:00am 24.5 26.5 21.6 84 1.9 N 13 20 7 11 1016.8 - 0.0
26/06:30am 23.5 26.7 21.6 89 1.3 N 7 17 4 9 1016.5 - 0.0
26/06:00am 23.1 26.6 22.1 94 0.7 NNW 7 9 4 5 1016.2 1016.2 0.0
26/05:30am 21.7 24.4 20.7 94 0.6 NW 7 9 4 5 1015.9 - 0.0
26/05:00am 20.6 22.9 19.4 93 0.8 N 6 7 3 4 1015.7 - 0.0
26/04:51am 20.6 22.7 19.4 93 0.8 N 7 7 4 4 1015.7 - 0.0
26/04:30am 20.9 23.7 19.6 92 0.8 N 4 6 2 3 1015.6 - 0.0
26/04:00am 20.5 22.5 19.2 92 0.8 N 7 7 4 4 1015.4 - 0.0
26/03:53am 20.6 22.7 19.3 92 0.8 N 7 9 4 5 1015.3 - 0.0
26/03:30am 21.1 23.3 19.6 91 1.0 NNW 7 9 4 5 1015.2 - 0.0
26/03:25am 21.2 23.4 19.7 91 1.0 NNW 7 9 4 5 1015.2 - 0.0
26/03:07am 21.5 24.1 20.0 91 1.0 NNW 6 7 3 4 1015.2 - 0.0
26/03:00am 21.5 24.1 20.0 91 1.0 NNW 6 7 3 4 1015.1 1015.1 0.0
26/02:30am 22.0 24.5 20.3 90 1.1 NW 7 9 4 5 1015.3 - 0.0
26/02:00am 22.6 26.0 20.9 90 1.1 N 4 7 2 4 1015.4 - 0.0
26/01:30am 22.9 25.9 21.2 90 1.1 NNW 7 9 4 5 1015.5 - 0.0
26/01:00am 23.2 26.0 21.5 90 1.1 N 9 13 5 7 1015.8 - 0.0
26/12:30am 23.1 25.3 21.2 89 1.2 N 11 15 6 8 1016.1 - 0.0
26/12:00am 24.0 26.2 21.9 88 1.4 NNE 13 17 7 9 1016.6 1016.6 0.0
 
Date/Time
EST
Tmp

°C
App
Tmp
°C
Dew
Point
°C
Rel
Hum
%
Delta-T

°C
Wind Press
QNH
hPa
Press
MSL
hPa
Rain
since
9 am
mm
Dir
 
Spd
km/h
Gust
km/h
Spd
kts
Gust
kts
25/11:30pm 23.7 25.7 21.6 88 1.4 N 13 17 7 9 1016.8 - 0.0
25/11:19pm 23.9 25.6 21.6 87 1.5 N 15 20 8 11 1016.8 - 0.0
25/11:07pm 24.1 25.1 21.8 87 1.5 NNE 19 24 10 13 1016.7 - 0.0
25/11:00pm 24.1 25.6 22.0 88 1.4 NNE 17 22 9 12 1016.7 - 0.0
25/10:30pm 24.1 25.6 22.0 88 1.4 N 17 22 9 12 1016.7 - 0.0
25/10:00pm 24.2 26.1 22.1 88 1.4 N 15 20 8 11 1016.6 - 0.0
25/09:30pm 24.1 25.6 22.0 88 1.4 N 17 22 9 12 1016.2 - 0.0
25/09:00pm 23.9 25.3 21.8 88 1.4 N 17 28 9 15 1015.8 1015.8 0.0
25/08:30pm 23.9 24.7 21.8 88 1.4 N 20 28 11 15 1015.1 - 0.0
25/08:00pm 23.8 24.7 21.5 87 1.5 N 19 24 10 13 1014.6 - 0.0
25/07:30pm 23.9 24.6 21.6 87 1.5 N 20 26 11 14 1014.1 - 0.0
25/07:00pm 24.0 24.4 21.7 87 1.5 N 22 30 12 16 1013.6 - 0.0
25/06:30pm 24.2 24.2 21.7 86 1.7 N 24 32 13 17 1013.0 - 0.0
25/06:00pm 24.5 24.1 21.6 84 1.9 N 26 35 14 19 1012.7 1012.7 0.0
25/05:30pm 25.2 24.4 21.7 81 2.3 N 28 35 15 19 1012.4 - 0.0
25/05:00pm 25.9 25.2 21.8 78 2.7 N 28 39 15 21 1012.0 - 0.0
25/04:30pm 26.6 25.2 22.0 76 3.1 N 32 39 17 21 1011.9 - 0.0
25/04:00pm 27.3 26.2 21.8 72 3.7 N 30 37 16 20 1011.9 - 0.0
25/03:30pm 27.4 26.3 21.7 71 3.8 N 30 39 16 21 1012.0 - 0.0
25/03:00pm 28.3 27.6 21.8 68 4.4 NNE 28 35 15 19 1012.2 1012.2 0.0
25/02:30pm 28.5 27.9 22.0 68 4.4 NNE 28 37 15 20 1012.4 - 0.0
25/02:00pm 28.8 27.2 21.6 65 4.8 NNE 32 41 17 22 1012.7 - 0.0
25/01:30pm 28.1 26.4 21.4 67 4.5 NNE 32 43 17 23 1012.8 - 0.0
25/01:00pm 28.6 26.9 20.6 62 5.3 NNE 30 39 16 21 1013.2 - 0.0
25/12:30pm 28.9 27.4 20.9 62 5.3 NNE 30 39 16 21 1013.6 - 0.0
25/12:00pm 28.0 25.2 19.0 58 5.8 NNE 32 37 17 20 1014.1 1014.1 0.0
25/11:30am 28.6 26.0 19.5 58 5.9 NNE 32 37 17 20 1014.4 - 0.0
25/11:00am 28.7 27.0 19.9 59 5.8 NNE 28 39 15 21 1014.8 - 0.0
25/10:30am 28.2 26.1 18.9 57 6.0 NNE 28 37 15 20 1015.2 - 0.0
25/10:00am 29.4 27.5 17.6 49 7.5 NNE 24 33 13 18 1015.3 - 0.0
25/09:30am 29.5 28.0 15.2 41 8.8 N 17 26 9 14 1015.8 - 0.0
25/09:00am 28.2 25.9 14.1 42 8.4 NNW 19 30 10 16 1016.1 1016.1 0.0
25/08:30am 27.2 26.2 16.5 52 6.6 WNW 17 26 9 14 1016.3 - 0.0
25/08:00am 26.0 26.4 18.9 65 4.5 NW 15 20 8 11 1016.5 - 0.0
25/07:30am 26.2 26.0 18.6 63 4.8 NW 17 22 9 12 1016.5 - 0.0
25/07:00am 24.6 26.2 19.9 75 3.0 NW 11 19 6 10 1016.3 - 0.0
25/06:30am 22.3 23.3 19.5 84 1.8 NNW 13 19 7 10 1015.8 - 0.0
25/06:00am 21.0 21.8 19.1 89 1.2 NNW 13 17 7 9 1015.5 1015.5 0.0
25/05:30am 19.2 19.2 18.0 93 0.7 N 15 17 8 9 1014.8 - 0.0
25/05:00am 18.1 18.7 16.9 93 0.7 NNW 9 11 5 6 1015.5 - 0.0
25/04:30am 18.3 18.6 17.1 93 0.7 NW 11 13 6 7 1015.2 - 0.0
25/04:00am 17.5 17.8 16.0 91 0.9 NW 9 11 5 6 1014.9 - 0.0
25/03:30am 18.2 19.6 16.5 90 1.0 NW 4 6 2 3 1014.7 - 0.0
25/03:00am 18.8 19.9 17.1 90 1.0 NW 7 9 4 5 1014.6 1014.6 0.0
25/02:30am 19.4 19.9 17.5 89 1.2 NNW 11 13 6 7 1014.5 - 0.0
25/02:00am 19.9 20.2 18.0 89 1.2 N 13 17 7 9 1014.5 - 0.0
25/01:30am 20.1 20.5 18.2 89 1.2 NNW 13 17 7 9 1014.7 - 0.0
25/01:00am 20.5 20.3 18.6 89 1.2 NNW 17 20 9 11 1014.9 - 0.0
25/12:30am 20.8 21.3 18.4 86 1.5 NW 13 17 7 9 1015.4 - 0.0
25/12:00am 22.0 21.5 18.6 81 2.1 N 19 26 10 14 1015.6 1015.6 0.0
 
Date/Time
EST
Tmp

°C
App
Tmp
°C
Dew
Point
°C
Rel
Hum
%
Delta-T

°C
Wind Press
QNH
hPa
Press
MSL
hPa
Rain
since
9 am
mm
Dir
 
Spd
km/h
Gust
km/h
Spd
kts
Gust
kts
24/11:30pm 22.1 21.6 18.7 81 2.1 NNW 19 26 10 14 1015.8 - 0.0

Latest Capital City Observations: Canberra | Sydney | Melbourne | Brisbane | Adelaide | Perth | Hobart | Darwin

Other Formats:

Comma delimited format used in spreadsheet applications
http://www.bom.gov.au/fwo/IDQ60901/IDQ60901.94569.axf

JavaScript Object Notation format (JSON) in row-major order
http://www.bom.gov.au/fwo/IDQ60901/IDQ60901.94569.json